This demonstration page uses our WeatherBlox Daily Observations layout. Learn more.

Hourly Observations for December 28, 2019

Temp ( °F °C ) Dew Point ( °F °C ) Humidity (%) Winds ( mph kmh ) Pressure ( in mb ) Visibility ( mi km ) Precip ( " mm )
12:15 am 00:15 Clear 37 3 37 3 100 100 Calm 30.21 1023 10 16.0934 0 0
12:35 am 00:35 Clear 37 3 37 3 100 100 WSW 3 6 30.21 1023 10 16.0934 0 0
12:55 am 00:55 Clear 37 3 37 3 100 100 WSW 3 6 30.2 1023 10 16.0934 0 0
1:15 am 01:15 Clear 37 3 37 3 100 100 Calm 30.21 1023 10 16.0934 0 0
1:35 am 01:35 Clear 36 2 36 2 100 100 Calm 30.21 1023 10 16.0934 0 0
1:55 am 01:55 Clear 36 2 36 2 100 100 W 3 6 30.21 1023 10 16.0934 0 0
2:15 am 02:15 Clear 36 2 36 2 100 100 Calm 30.22 1023 10 16.0934 0 0
2:35 am 02:35 Clear 37 3 37 3 100 100 Calm 30.22 1023 7 11.26538 0 0
2:55 am 02:55 Clear 34 1 34 1 100 100 Calm 30.22 1023 10 16.0934 0 0
3:15 am 03:15 Clear 34 1 34 1 100 100 Calm 30.23 1024 10 16.0934 0 0
3:35 am 03:35 Clear 36 2 36 2 100 100 SSW 3 6 30.22 1023 10 16.0934 0 0
3:55 am 03:55 Clear 34 1 34 1 100 100 Calm 30.23 1024 10 16.0934 0 0
4:15 am 04:15 Partly Cloudy 34 1 34 1 100 100 Calm 30.23 1024 10 16.0934 0 0
4:35 am 04:35 Partly Cloudy 36 2 36 2 100 100 Calm 30.23 1024 10 16.0934 0 0
4:55 am 04:55 Clear 36 2 36 2 100 100 Calm 30.23 1024 10 16.0934 0 0
5:15 am 05:15 Clear 36 2 36 2 100 100 NW 3 6 30.23 1024 10 16.0934 0 0
5:35 am 05:35 Clear 36 2 36 2 100 100 NNW 3 6 30.23 1024 10 16.0934 0 0
5:55 am 05:55 Clear 36 2 36 2 100 100 Calm 30.24 1024 10 16.0934 0 0
6:15 am 06:15 Clear 34 1 34 1 100 100 N 3 6 30.25 1024 10 16.0934 0 0
6:35 am 06:35 Clear 34 1 34 1 100 100 Calm 30.25 1024 10 16.0934 0 0
6:55 am 06:55 Clear 34 1 34 1 100 100 Calm 30.26 1025 10 16.0934 0 0
7:15 am 07:15 Clear 34 1 34 1 100 100 undefined N/A 30.27 1025 10 16.0934 0 0
7:35 am 07:35 Sunny 34 1 34 1 100 100 Calm 30.28 1025 10 16.0934 0 0
7:55 am 07:55 Sunny 34 1 34 1 100 100 N 6 9 30.28 1025 10 16.0934 0 0
8:15 am 08:15 Sunny 36 2 36 2 100 100 N 5 7 30.29 1026 7 11.26538 0 0
8:35 am 08:35 Sunny 37 3 37 3 100 100 NNW 5 7 30.29 1026 10 16.0934 0 0
8:55 am 08:55 Sunny 41 5 39 4 93 93 Calm 30.29 1026 10 16.0934 0 0
9:15 am 09:15 Sunny 43 6 41 5 93 93 Calm 30.29 1026 10 16.0934 0 0
9:35 am 09:35 Sunny 45 7 43 6 93 93 Calm 30.29 1026 10 16.0934 0 0
9:55 am 09:55 Sunny 46 8 43 6 87 87 Calm 30.29 1026 10 16.0934 0 0
10:15 am 10:15 Sunny 50 10 45 7 82 82 Calm 30.29 1026 10 16.0934 0 0
10:35 am 10:35 Sunny 52 11 46 8 82 82 Calm 30.28 1026 4 6.43736 0 0
10:55 am 10:55 Sunny 55 13 46 8 72 72 Calm 30.28 1025 7 11.26538 0 0
11:15 am 11:15 Sunny 55 13 46 8 72 72 Calm 30.27 1025 10 16.0934 0 0
11:35 am 11:35 Sunny 57 14 46 8 67 67 Calm 30.26 1025 10 16.0934 0 0
11:55 am 11:55 Sunny 59 15 46 8 63 63 NNW 6 9 30.26 1025 10 16.0934 0 0
12:15 pm 12:15 Sunny 59 15 46 8 63 63 N 8 13 30.25 1024 10 16.0934 0 0
12:35 pm 12:35 Sunny 61 16 46 8 59 59 NW 5 7 30.24 1024 10 16.0934 0 0
12:55 pm 12:55 Sunny 61 16 46 8 59 59 NNW 5 7 30.23 1024 10 16.0934 0 0
1:15 pm 13:15 Sunny 61 16 45 7 55 55 WNW 5 7 30.22 1023 10 16.0934 0 0
1:35 pm 13:35 Sunny 61 16 45 7 55 55 WNW 6 9 30.21 1023 10 16.0934 0 0
1:55 pm 13:55 Sunny 61 16 45 7 55 55 WNW 6 9 30.21 1023 10 16.0934 0 0
2:15 pm 14:15 Sunny 63 17 45 7 52 52 WNW 5 7 30.21 1023 10 16.0934 0 0
2:35 pm 14:35 Sunny 63 17 45 7 52 52 Calm 30.2 1023 10 16.0934 0 0
2:55 pm 14:55 Sunny 63 17 45 7 52 52 Calm 30.21 1023 10 16.0934 0 0
3:15 pm 15:15 Sunny 63 17 45 7 52 52 Calm 30.21 1023 10 16.0934 0 0
3:35 pm 15:35 Sunny 61 16 45 7 55 55 Calm 30.21 1023 10 16.0934 0 0
3:55 pm 15:55 Sunny 61 16 45 7 55 55 Calm 30.21 1023 10 16.0934 0 0
4:15 pm 16:15 Sunny 61 16 45 7 55 55 Calm 30.21 1023 10 16.0934 0 0
4:35 pm 16:35 Sunny 61 16 45 7 55 55 E 6 9 30.22 1023 10 16.0934 0 0
4:55 pm 16:55 Sunny 59 15 45 7 59 59 E 7 11 30.23 1024 10 16.0934 0 0
5:15 pm 17:15 Clear 55 13 45 7 67 67 ENE 3 6 30.22 1023 10 16.0934 0 0
5:35 pm 17:35 Clear 55 13 45 7 67 67 ESE 3 6 30.22 1023 10 16.0934 0 0
5:55 pm 17:55 Clear 54 12 45 7 72 72 Calm 30.22 1023 10 16.0934 0 0
6:15 pm 18:15 Clear 50 10 45 7 82 82 Calm 30.22 1023 10 16.0934 0 0
6:35 pm 18:35 Clear 48 9 43 6 82 82 Calm 30.22 1023 10 16.0934 0 0
6:55 pm 18:55 Clear 48 9 43 6 82 82 Calm 30.22 1023 10 16.0934 0 0
7:15 pm 19:15 Clear 46 8 43 6 87 87 Calm 30.22 1023 10 16.0934 0 0
7:35 pm 19:35 Clear 45 7 43 6 93 93 Calm 30.23 1024 10 16.0934 0 0
7:55 pm 19:55 Clear 45 7 43 6 93 93 Calm 30.23 1024 10 16.0934 0 0
8:15 pm 20:15 Clear 43 6 41 5 93 93 Calm 30.23 1024 10 16.0934 0 0
8:35 pm 20:35 Clear 45 7 43 6 93 93 Calm 30.23 1024 10 16.0934 0 0
8:55 pm 20:55 Clear 43 6 41 5 93 93 Calm 30.25 1024 10 16.0934 0 0
9:15 pm 21:15 Clear 41 5 41 5 100 100 N 3 6 30.26 1025 10 16.0934 0 0
9:35 pm 21:35 Clear 43 6 41 5 93 93 N 3 6 30.26 1025 10 16.0934 0 0
9:55 pm 21:55 Clear 43 6 41 5 93 93 Calm 30.25 1024 10 16.0934 0 0
10:15 pm 22:15 Clear 41 5 41 5 100 100 NE 5 7 30.25 1025 10 16.0934 0 0
10:35 pm 22:35 Clear 43 6 41 5 93 93 Calm 30.25 1024 10 16.0934 0 0
10:55 pm 22:55 Clear 41 5 41 5 100 100 NNE 5 7 30.24 1024 10 16.0934 0 0
11:15 pm 23:15 Clear 43 6 43 6 100 100 N 3 6 30.24 1024 10 16.0934 0 0
11:35 pm 23:35 Clear 43 6 41 5 93 93 N 5 7 30.24 1024 10 16.0934 0 0
11:55 pm 23:55 Clear 43 6 41 5 93 93 ENE 3 6 30.23 1024 10 16.0934 0 0

Powered by AerisWeather